STARLINK-32395, 61679

Orbit data source: Space-Track

STARLINK-32395, 61679 is a payload satellite owned by SpaceX/Seattle (US) in LEO that was launched on Sat, 26 Oct 2024 UTC via an FALCON 9 launch vehicle from the Air Force Eastern Test Range (AFETR). Payload-class satellites include a variety of spacecraft equipped with specific instruments for various scientific and technological missions. These include communications satellites like Starlink; space stations such as the ISS; scientific satellites like the Hubble; Earth observation satellites from companies like Planet Labs, Umbra, and HawkEye 360; GPS; miniature CubeSats for education and research; and military/defense satellites.

Loading next visibility...
Identifier
61679, 2024-193U
Orbit
LEO
Country
Flag of USUS
Related business
Manufacturer
SpaceX/Seattle
Mission
Operational Commercial Communications
Bus & Motor
STARLINK V2M, Unknown motor
Mass
730 kg wet, ~700 kg dry
Launch date (UTC)
2024-10-26 (2 years ago)
Launch vehicle
FALCON 9
Launch site
Air Force Eastern Test Range (AFETR)
Object type
Payload
Rocket body
Debris
Shape & HBR
Box + 2 Pan, 17.7 m
Radar Cross Section
33.884 m², Large (>1 m²)

Expand to show TLE details & history
Last TLE update: 10 hours ago

TLE from 10 hours ago
0 STARLINK-32395
1 61679U 24193U   26125.45993954  .00000589  00000-0  32002-4 0  9995
2 61679  53.1597 187.6461 0001015  62.9661 297.1443 15.30200472 85211
Epoch: 2026-05-05T11:02Z
TLE epoch observation values (Epoch: 2026-05-05T11:02:18.776Z)
Latitude
-0.00003°
Longitude
158.73337°
Altitude
475.796 km
Speed
7.629 km/s
True Right ascension
12h 30m 35s
True Declination
0° 00' 00"
Sunlit
Object was in full shadow at epoch
Visualization orbit readout
Latitude
Unknown
Longitude
Unknown
Altitude
Unknown
Speed
Unknown
Apparent Right ascension
Unknown
Apparent Declination
Unknown
Sunlit
N/A
Visualization observer readout
Local Sidereal Time
05:23:37
Azimuth
Unknown
Elevation
Unknown
Doppler factor
Unknown
Orbital elements
Apogee altitude
476.166 km
Perigee altitude
474.774 km
Semi-major axis
6,853.607 km
Eccentricity
0.0001
Inclination
53.1597°
RAAN
187.6461°
Arg. of periapsis
62.9661°
True anomaly
297.13395°
Mean anomaly
297.1443°
Eccentric anomaly
297.13912°
Mean motion
3.82529 °/min
Orbital period
94.11 mins
BSTAR
0.000032002
Loading maneuver chart data...
Computing Atmospheric mass density...
Loading historical data...
Loading historical data...
Loading historical data...
Loading historical data...
Loading historical data...
Loading historical data...
Loading historical data...

Documentation

Showing up to 5 results
|